Location: Kuppenheim
(48.8299°N, 8.2568°E)
Time: 14:12:13
(UTC+00:00)

ADEOS Rocket - Visible Passes

Search period start: 22 October 2021 00:00
Search period end: 01 November 2021 00:00
Orbit: 859 x 1306 km, 98.8° (Epoch: 21 October)

Date Brightness Start Highest point End Pass type
(mag) Time Alt. Az. Time Alt. Az. Time Alt. Az.
22 Oct 5.6 01:39:17 12° NNW 01:39:17 12° NNW 01:39:43 10° NNW visible
22 Oct 5.7 23:02:48 16° NNE 23:02:48 16° NNE 23:04:21 10° N visible
23 Oct 5.6 00:49:46 15° NNW 00:49:46 15° NNW 00:50:47 10° NNW visible
23 Oct 5.9 22:13:17 11° NNE 22:13:17 11° NNE 22:13:53 10° NNE visible
24 Oct 5.6 00:00:14 16° N 00:00:14 16° N 00:01:29 10° N visible
24 Oct 5.7 23:10:43 14° N 23:10:43 14° N 23:11:50 10° N visible
25 Oct 5.7 00:57:41 12° NNW 00:57:41 12° NNW 00:58:10 10° NNW visible
25 Oct 5.9 22:21:12 11° NNE 22:21:12 11° NNE 22:21:33 10° NNE visible
26 Oct 5.7 00:08:09 14° N 00:08:09 14° N 00:08:55 10° N visible
26 Oct 5.8 23:18:37 13° N 23:18:37 13° N 23:19:19 10° N visible
27 Oct 5.9 22:29:05 10° NNE 22:29:05 10° NNE 22:29:09 10° NNE visible
28 Oct 5.8 00:16:03 11° N 00:16:03 11° N 00:16:20 10° N visible
28 Oct 5.9 23:26:31 11° N 23:26:31 11° N 23:26:47 10° N visible
